AirNav   Everest Fuels
 
 704 users online  

2K9 Haskell Airport
Haskell, Oklahoma, USA

GOING TO HASKELL?


FAA INFORMATION EFFECTIVE 13 AUGUST 2020

Location

FAA Identifier: 2K9
Lat/Long: 35-49-58.3000N 095-40-02.7000W
35-49.971667N 095-40.045000W
35.8328611,-95.6674167
(estimated)
Elevation: 588 ft. / 179.2 m (surveyed)
Variation: 06E (1985)
From city: 1 mile NE of HASKELL, OK
Time zone: UTC -5 (UTC -6 during Standard Time)
Zip code: 74436

Airport Operations

Airport use: Open to the public
Activation date: 11/1971
Control tower: no
ARTCC: KANSAS CITY CENTER
FSS: MC ALESTER FLIGHT SERVICE STATION
NOTAMs facility: MLC (NOTAM-D service available)
Attendance: IREG
Wind indicator: yes
Segmented circle: no

Airport Communications

CTAF: 122.9
WX AWOS-3 at OKM (17 nm SW): 118.225 (918-756-9502)
WX ASOS at MKO (18 nm SE): 135.025 (918-683-6987)
WX ASOS at RVS (20 nm NW): PHONE 918-299-0740

Nearby radio navigation aids

VOR radial/distance  VOR name  Freq  Var
OKMr041/12.8OKMULGEE VOR/DME114.9008E
TULr157/22.6TULSA VORTAC114.4008E

 
NDB name  Hdg/Dist  Freq  Var  ID
PRESO067/14.538804EOK --- -.-
HENRYETTA029/30.826704EHET .... . -
WILLIAM POGUE125/31.236206EOWP --- .-- .--.

Airport Services

Fuel available: 100LL
Parking: hangars and tiedowns
Airframe service: NONE
Powerplant service: NONE
Bottled oxygen: NONE
Bulk oxygen: NONE

Runway Information

Runway 17/35

Dimensions: 3710 x 30 ft. / 1131 x 9 m
Surface: asphalt, in fair condition
Runway edge markings: SMALL NUMBERS WITH NTSD CENTERLINE.
RUNWAY 17  RUNWAY 35
Latitude: 35-50.276955N35-49.665347N
Longitude: 095-40.049280W095-40.040760W
Elevation: 587.0 ft.584.0 ft.
Traffic pattern: left
RY 17 & 35 ULTRALIGHTS USE RIGHT TRAFFIC.
left
Runway heading: 173 magnetic, 179 true353 magnetic, 359 true
Markings: NSTD, in good conditionNSTD, in good condition
Obstructions: 58 ft. trees, 200 ft. from runway, 40 ft. right of centerline
56 FT TREES 170 FT FM THLD & 40 FT R.
none
13 FT TREES 20 FT FM THLD & 48 FT R, 20 FT TREES 20 FT FM THLD & 65 FT L, 15 FT ROAD 40 FT FM THLD.

Airport Ownership and Management from official FAA records

Ownership: Privately-owned
Owner: H.E. REYNOLDS
15576 S. 289TH E AVE
COWETA, OK 74429
Phone 918-231-3232
Manager: H.E. REYNOLDS
15576 S. 289TH E. AVE
COWETA, OK 74429
Phone 918-231-3232

Airport Operational Statistics

Aircraft based on the field: 25
Single engine airplanes: 20
Ultralights: 5
    
Aircraft operations: avg 23/week *
96% local general aviation
4% transient general aviation
* for 12-month period ending 21 March 2018

Additional Remarks

ULTRALIGHT ACTIVITY ON & INVOF ARPT.
DALGT OPNS ONLY.
FOR CD CTC KANSAS CITY ARTCC AT 913-254-8508.

Instrument Procedures

There are no published instrument procedures at 2K9.

Some nearby airports with instrument procedures:

KOKM - Okmulgee Regional Airport (17 nm SW)
H68 - Hefner-Easley Airport (18 nm NE)
KMKO - Muskogee-Davis Regional Airport (18 nm SE)
KRVS - Richard Lloyd Jones Jr Airport (20 nm NW)
KTUL - Tulsa International Airport (24 nm NW)
 
Loc | Ops | Rwys | IFR | FBO | Links
Com | Nav | Svcs | Stats | Notes
Area around 2K9 (Haskell Airport)
 
Road maps at: MapQuest Bing Google
 
Aerial photo
WARNING: Photo may not be current or correct
Aerial photo of 2K9 (Haskell Airport)
Photo by Brent Butler
Photo taken 26-Aug-2010
looking North.

Do you have a better or more recent aerial photo of Haskell Airport that you would like to share? If so, please send us your photo.

 
Sectional chart

 
Airport distance calculator
Flying to Haskell Airport? Find the distance to fly.

From to 2K9

Sunrise and sunset
Times for 14-Aug-2020
 Local
(UTC-5)
 Zulu
(UTC)
Morning civil twilight06:1511:15
Sunrise06:4211:42
Sunset20:1201:12
Evening civil twilight20:3901:39

Current date and time
Zulu (UTC)  14-Aug-2020 11:17:43
Local (UTC-5)  14-Aug-2020 06:17:43
 
METAR
KOKM 
17nm SW 
141055Z AUTO 11005KT 10SM BKN120 24/24 A2987 RMK AO2 T02430243
KMKO 
18nm SE 
141053Z AUTO 08009KT 10SM OVC100 23/21 A2993 RMK AO2 LTG DSNT E PRESRR SLP126 T02280211
KRVS 
20nm NW 
141053Z AUTO 11009KT 10SM CLR 27/23 A2987 RMK AO2 SLP115 T02670233
KTUL 
24nm NW 
141053Z 11011KT 10SM FEW060 SCT100 25/23 A2987 RMK AO2 SLP105 T02500233
KH71 
29nm NE 
141055Z AUTO 11011KT 10SM VCTS BKN036 OVC043 24/24 A2989 RMK AO2 LTG DSNT NE-SE
KGCM 
29nm N 
141055Z AUTO 13007KT 10SM BKN090 OVC110 23/17 A2991 RMK AO2
KOWP 
31nm NW 
141055Z AUTO 11007KT 10SM CLR 26/24 A2988 RMK AO2 T02600239 PWINO
KTQH 
33nm E 
141055Z AUTO 07018G22KT 10SM BKN046 BKN050 OVC080 21/17 A2995 RMK AO2
TAF
KRVS 
20nm NW 
140521Z 1406/1506 00000KT P6SM BKN110 FM141600 11006KT P6SM SCT040 FM150100 13003KT P6SM FEW150
KTUL 
24nm NW 
140521Z 1406/1506 13004KT P6SM FEW150 FM141600 11007KT P6SM SCT040 FM150100 13006KT P6SM FEW150
NOTAMs
Click for the latest NOTAMs
NOTAMs are issued by the DoD/FAA and will open in a separate window not controlled by AirNav.

 

 
 

FBO, Fuel Providers, and Aircraft Ground Support

  
 Business Name 
 
 Contact 
 
 Services / Description 
 
Fuel Prices
 
Comments
  
Haskell Airport 918-231-3232
no information available

If you are affiliated with Haskell Airport and would like to show here your services, contact info, web link, logo, and more, click here
100LL
SS $3.95 
 Updated 06-Aug-2020
 
   write
SS=Self service
Update Fuel Prices
 

Would you like to see your business listed on this page?

 If your business provides an interesting product or service to pilots, flight crews, aircraft, or users of the Haskell Airport, you should consider listing it here.  To start the listing process, click on the button below
 
Add a business
 

Other Pages about Haskell Airport

www.haskellairport.com
 
Update a link
 
Copyright © AirNav, LLC. All rights reserved. Privacy Policy  Contact